Glens Falls, NY

6:28 AM EST on November 20, 2019 (GMT -0500)
Bennett Memorial

Weather History for KGFL - September, 2019

Change the Weather History Date:

Sunday, September 1, 2019

  Actual Average Record
Temperature  
Mean Temperature 59 °F 64 °F  
Max Temperature 72 °F 76 °F 91 °F (1953)
Min Temperature 46 °F 52 °F 38 °F (1967)
Degree Days  
Heating Degree Days 6 3  
Month to date heating degree days 6 3  
Since 1 July heating degree days 34 69  
Cooling Degree Days 0 2  
Month to date cooling degree days 0 2  
Year to date cooling degree days 395 329  
Growing Degree Days 9 (Base 50)    
Moisture  
Dew Point 51 °F    
Average Humidity 75    
Maximum Humidity 100    
Minimum Humidity 49    
Precipitation  
Precipitation 0.06 in 0.10 in 2.06 in (1952)
Month to date precipitation 0.06 0.10  
Year to date precipitation 28.85 25.91  
Sea Level Pressure  
Sea Level Pressure 30.33 in    
Wind  
Wind Speed 2 mph (SSW)    
Max Wind Speed 14 mph    
Max Gust Speed 18 mph    
Visibility 8 miles    
Events Rain    
T = Trace of Precipitation, MM = Missing Value Source: NWS Daily Summary

Daily Weather History Graph

Daily Weather History Graph

Search for Another Location

Airport or City:

Astronomy

Sep. 01, 2019 Rise Set
Actual Time 6:18 AM EDT 7:29 PM EDT
Civil Twilight 5:48 AM EDT 7:59 PM EDT
Nautical Twilight 5:13 AM EDT 8:34 PM EDT
Astronomical Twilight 4:36 AM EDT 9:11 PM EDT
Moon 8:48 AM EDT (9/1) 9:11 PM EDT (9/1)
Length of Visible Light 14h 10m
Length of Day
13h 11m
Waxing Crescent, 8% of the Moon is Illuminated
Sep 1
Waxing Crescent
Sep 5
First Quarter
Sep 14
Full
Sep 21
Last Quarter
Sep 28
New

Hourly Weather History & Observations

Time (EDT) Temp. Windchill Dew Point Humidity Pressure Visibility Wind Dir Wind Speed Gust Speed Precip Events Conditions
12:53 AM 48.9 °F - 48.0 °F 97% 30.34 in 4.0 mi Calm Calm - N/A   Clear
1:04 AM 48.9 °F - 48.0 °F 97% 30.34 in 2.5 mi Calm Calm - N/A   Clear
1:12 AM 48.9 °F - 48.0 °F 97% 30.34 in 10.0 mi Calm Calm - N/A   Clear
1:53 AM 50.0 °F - 48.0 °F 93% 30.34 in 10.0 mi Calm Calm - N/A   Clear
2:53 AM 52.0 °F - 48.9 °F 89% 30.35 in 10.0 mi Calm Calm - N/A   Clear
3:53 AM 50.0 °F - 48.9 °F 96% 30.35 in 5.0 mi Calm Calm - N/A   Clear
4:33 AM 50.0 °F - 48.9 °F 96% 30.35 in 3.0 mi Calm Calm - N/A   Clear
4:53 AM 50.0 °F - 48.0 °F 93% 30.36 in 10.0 mi Calm Calm - N/A   Clear
5:00 AM 48.9 °F - 48.0 °F 97% 30.36 in 1.5 mi Calm Calm - N/A   Clear
5:11 AM 48.9 °F - 48.0 °F 97% 30.36 in 4.0 mi Calm Calm - N/A   Clear
5:21 AM 48.0 °F - 46.9 °F 96% 30.36 in 2.0 mi Calm Calm - N/A   Clear
5:30 AM 46.0 °F 44.8 °F 46.0 °F 100% 30.36 in 10.0 mi South 3.5 mph - N/A   Clear
5:53 AM 48.9 °F - 46.9 °F 93% 30.36 in 5.0 mi Calm Calm - N/A   Clear
6:41 AM 46.9 °F - 46.0 °F 97% 30.37 in 1.5 mi Calm Calm - N/A   Clear
6:49 AM 48.2 °F - 48.2 °F 100% 30.37 in 0.8 mi Calm Calm - N/A   Clear
6:53 AM 50.0 °F - 48.0 °F 93% 30.38 in 2.5 mi Calm Calm - N/A   Clear
7:00 AM 50.0 °F - 48.0 °F 93% 30.37 in 10.0 mi Calm Calm - N/A   Clear
7:53 AM 54.0 °F - 51.1 °F 90% 30.39 in 10.0 mi Calm Calm - N/A   Clear
8:53 AM 59.0 °F - 52.0 °F 78% 30.39 in 10.0 mi Calm Calm - N/A   Clear
9:53 AM 62.1 °F - 52.0 °F 70% 30.39 in 10.0 mi Calm Calm - N/A   Clear
10:53 AM 64.0 °F - 51.1 °F 63% 30.38 in 10.0 mi Calm Calm - N/A   Clear
11:53 AM 66.0 °F - 52.0 °F 60% 30.37 in 10.0 mi NNE 5.8 mph - N/A   Clear
12:53 PM 66.9 °F - 51.1 °F 57% 30.35 in 10.0 mi Variable 3.5 mph - N/A   Clear
1:53 PM 71.1 °F - 52.0 °F 51% 30.32 in 10.0 mi Variable 3.5 mph - N/A   Clear
2:53 PM 72.0 °F - 53.1 °F 51% 30.30 in 10.0 mi South 9.2 mph - N/A   Partly Cloudy
3:53 PM 71.1 °F - 52.0 °F 51% 30.29 in 10.0 mi SW 10.4 mph - N/A   Partly Cloudy
4:53 PM 69.1 °F - 54.0 °F 58% 30.28 in 10.0 mi SSW 5.8 mph - N/A   Overcast
5:53 PM 69.1 °F - 55.0 °F 61% 30.26 in 10.0 mi South 3.5 mph - N/A   Mostly Cloudy
6:53 PM 66.9 °F - 57.0 °F 70% 30.25 in 10.0 mi Calm Calm - N/A   Overcast
7:53 PM 64.0 °F - 59.0 °F 84% 30.23 in 10.0 mi Calm Calm - N/A   Overcast
8:53 PM 64.0 °F - 57.9 °F 80% 30.22 in 10.0 mi Calm Calm - N/A   Mostly Cloudy
9:53 PM 62.1 °F - 59.0 °F 90% 30.21 in 10.0 mi Calm Calm - 0.01 in Rain Light Rain
10:53 PM 63.0 °F - 60.1 °F 90% 30.21 in 9.0 mi Calm Calm - 0.03 in Rain Light Rain
11:53 PM 62.1 °F - 60.1 °F 93% 30.19 in 9.0 mi Calm Calm - 0.00 in Rain Light Rain